This is the latest recevied weather packets stored in our database for station/object N8HON. If no packets are shown the sender has not sent any weather packets the latest 10 day(s).
| Time | Temp. | Humidity | Pressure | Rain* | Wind** | Luminosity | Snow |
|---|---|---|---|---|---|---|---|
| 1778189954 | 16.11° C | 48% | 1007.6 hPa | 0 mm | - | 272 W/m² | - |
| 1778189650 | 16.67° C | 43% | 1007.6 hPa | 0 mm | - | 368 W/m² | - |
| 1778189348 | 16.67° C | 43% | 1007.7 hPa | 0 mm | - | 384 W/m² | - |
| 1778189043 | 16.11° C | 47% | 1007.8 hPa | 0 mm | - | 410 W/m² | - |
| 1778188740 | 16.67° C | 44% | 1007.8 hPa | 0 mm | - | 438 W/m² | - |
| 1778188436 | 16.11° C | 47% | 1007.9 hPa | 0 mm | - | 452 W/m² | - |
| 1778188134 | 16.11° C | 46% | 1007.8 hPa | 0 mm | - | 127 W/m² | - |
| 1778187830 | 16.67° C | 46% | 1007.6 hPa | 0 mm | - | 197 W/m² | - |
| 1778187527 | 16.67° C | 46% | 1007.7 hPa | 0 mm | - | 468 W/m² | - |
| 1778187224 | 16.67° C | 45% | 1007.6 hPa | 0 mm | - | 150 W/m² | - |
| 1778186920 | 16.67° C | 48% | 1007.8 hPa | 0 mm | - | 544 W/m² | - |
| 1778186617 | 16.11° C | 47% | 1007.5 hPa | 0 mm | - | 107 W/m² | - |
| 1778186315 | 17.78° C | 46% | 1007.7 hPa | 0 mm | - | 91 W/m² | - |
| 1778186013 | 17.78° C | 45% | 1007.6 hPa | 0 mm | - | 553 W/m² | - |
| 1778185709 | 17.78° C | 46% | 1007.5 hPa | 0 mm | - | 468 W/m² | - |
| 1778185405 | 17.78° C | 48% | 1007.5 hPa | 0 mm | - | 299 W/m² | - |
| 1778185101 | 17.22° C | 44% | 1007.7 hPa | 0 mm | - | 276 W/m² | - |
| 1778184797 | 17.78° C | 46% | 1007.7 hPa | 0 mm | - | 595 W/m² | - |
| 1778184493 | 17.78° C | 44% | 1007.7 hPa | 0 mm | - | 602 W/m² | - |
| 1778184189 | 18.33° C | 42% | 1007.7 hPa | 0 mm | - | 608 W/m² | - |
| 1778183885 | 18.89° C | 42% | 1007.7 hPa | 0 mm | - | 565 W/m² | - |
| 1778183583 | 18.33° C | 46% | 1007.6 hPa | 0 mm | - | 585 W/m² | - |
| 1778183280 | 17.78° C | 44% | 1007.8 hPa | 0 mm | - | 654 W/m² | - |
| 1778182976 | 18.33° C | 43% | 1007.8 hPa | 0 mm | - | 530 W/m² | - |
| 1778182673 | 17.78° C | 43% | 1007.8 hPa | 0 mm | - | 628 W/m² | - |
* Rain latest hour (hover to see other rain measurements)
** Current wind speed in m/s (hover to see current wind gust speed)